| time (UTC) | temp F | wind direction | speed MPH | gust MPH | rain 1hr in | rain 24hr in | rain mn in | humidity % | barometer mb |
| 20260506134030 | 58 | 280 | 7.0 | 15.0 | 0.00 | 0.00 | 0.00 | 46 | 1014.0 |
| 20260506133531 | 58 | 278 | 9.0 | 12.0 | 0.00 | 0.00 | 0.00 | 48 | 1013.8 |
| 20260506133032 | 57 | 275 | 5.0 | 12.0 | 0.00 | 0.00 | 0.00 | 51 | 1013.8 |
| 20260506132529 | 57 | 266 | 9.0 | 12.0 | 0.00 | 0.00 | 0.00 | 51 | 1013.7 |
| 20260506132029 | 57 | 254 | 8.0 | 10.0 | 0.00 | 0.00 | 0.00 | 51 | 1013.6 |
| 20260506131529 | 57 | 239 | 5.0 | 12.0 | 0.00 | 0.00 | 0.00 | 51 | 1013.5 |
| 20260506131026 | 58 | 265 | 4.0 | 12.0 | 0.00 | 0.00 | 0.00 | 49 | 1013.4 |
| 20260506130532 | 57 | 268 | 6.0 | 13.0 | 0.00 | 0.00 | 0.00 | 49 | 1013.3 |
| 20260506130027 | 57 | 255 | 4.0 | 10.0 | 0.00 | 0.00 | 0.00 | 52 | 1013.2 |
| 20260506125525 | 56 | 222 | 5.0 | 8.0 | 0.00 | 0.01 | 0.00 | 53 | 1013.2 |
| 20260506125025 | 56 | 234 | 3.0 | 8.0 | 0.00 | 0.01 | 0.00 | 53 | 1013.1 |
| 20260506124523 | 56 | 273 | 2.0 | 6.0 | 0.00 | 0.01 | 0.00 | 53 | 1013.1 |
| 20260506124022 | 56 | 276 | 3.0 | 7.0 | 0.00 | 0.01 | 0.00 | 52 | 1013.0 |
| 20260506123522 | 57 | 259 | 4.0 | 8.0 | 0.00 | 0.01 | 0.00 | 51 | 1013.0 |
| 20260506123022 | 58 | 240 | 4.0 | 11.0 | 0.00 | 0.01 | 0.00 | 50 | 1013.0 |
| 20260506122523 | 58 | 244 | 8.0 | 11.0 | 0.00 | 0.01 | 0.00 | 49 | 1013.0 |
| 20260506122020 | 58 | 273 | 8.0 | 13.0 | 0.00 | 0.01 | 0.00 | 48 | 1012.8 |
| 20260506121520 | 58 | 250 | 9.0 | 13.0 | 0.00 | 0.01 | 0.00 | 50 | 1012.9 |
| 20260506121019 | 57 | 271 | 9.0 | 13.0 | 0.00 | 0.01 | 0.00 | 51 | 1012.7 |
| 20260506120519 | 57 | 272 | 6.0 | 11.0 | 0.00 | 0.01 | 0.00 | 52 | 1012.6 |
| 20260506120018 | 58 | 253 | 6.0 | 11.0 | 0.00 | 0.01 | 0.00 | 51 | 1012.5 |
| 20260506115517 | 57 | 269 | 5.0 | 12.0 | 0.00 | 0.01 | 0.00 | 51 | 1012.5 |
| 20260506115019 | 58 | 245 | 5.0 | 12.0 | 0.00 | 0.01 | 0.00 | 51 | 1012.4 |
| 20260506114524 | 58 | 246 | 7.0 | 11.0 | 0.00 | 0.01 | 0.00 | 51 | 1012.3 |
| 20260506114016 | 58 | 234 | 6.0 | 12.0 | 0.00 | 0.01 | 0.00 | 50 | 1012.2 |
| 20260506113516 | 58 | 238 | 8.0 | 12.0 | 0.00 | 0.01 | 0.00 | 50 | 1012.2 |
| 20260506113018 | 58 | 261 | 6.0 | 11.0 | 0.00 | 0.01 | 0.00 | 50 | 1012.2 |
| 20260506112515 | 58 | 240 | 6.0 | 13.0 | 0.00 | 0.01 | 0.00 | 51 | 1012.1 |
| 20260506112015 | 58 | 243 | 7.0 | 13.0 | 0.00 | 0.01 | 0.00 | 51 | 1012.0 |
| 20260506111513 | 57 | 285 | 5.0 | 11.0 | 0.00 | 0.01 | 0.00 | 52 | 1011.9 |
| 20260506111013 | 56 | 254 | 6.0 | 11.0 | 0.00 | 0.01 | 0.00 | 55 | 1011.9 |
| 20260506110513 | 54 | 239 | 5.0 | 9.0 | 0.00 | 0.01 | 0.00 | 61 | 1011.9 |
| 20260506110016 | 52 | 306 | 3.0 | 9.0 | 0.00 | 0.01 | 0.00 | 65 | 1011.8 |
| 20260506105510 | 51 | 298 | 0.0 | 3.0 | 0.00 | 0.01 | 0.00 | 65 | 1011.8 |
| 20260506105010 | 51 | 355 | 0.0 | 3.0 | 0.00 | 0.01 | 0.00 | 65 | 1011.7 |
| 20260506104510 | 51 | 5 | 1.0 | 3.0 | 0.00 | 0.01 | 0.00 | 65 | 1011.6 |
| 20260506104009 | 50 | 221 | 0.0 | 2.0 | 0.00 | 0.01 | 0.00 | 65 | 1011.6 |
| 20260506103509 | 51 | 223 | 0.0 | 2.0 | 0.00 | 0.01 | 0.00 | 65 | 1011.5 |
| 20260506103019 | 51 | 225 | 0.0 | 3.0 | 0.00 | 0.01 | 0.00 | 64 | 1011.4 |
| 20260506102507 | 51 | 225 | 0.0 | 3.0 | 0.00 | 0.01 | 0.00 | 64 | 1011.4 |
| 20260506102005 | 51 | 225 | 1.0 | 3.0 | 0.00 | 0.01 | 0.00 | 63 | 1011.3 |
| 20260506101505 | 52 | 225 | 1.0 | 3.0 | 0.00 | 0.01 | 0.00 | 63 | 1011.3 |
| 20260506101003 | 52 | 234 | 1.0 | 2.0 | 0.00 | 0.01 | 0.00 | 62 | 1011.3 |
| 20260506100503 | 52 | 234 | 0.0 | 5.0 | 0.00 | 0.01 | 0.00 | 62 | 1011.2 |
| 20260506100003 | 52 | 234 | 1.0 | 5.0 | 0.00 | 0.01 | 0.00 | 62 | 1011.2 |
| 20260506095502 | 52 | 211 | 2.0 | 3.0 | 0.00 | 0.01 | 0.00 | 64 | 1011.1 |
| 20260506095002 | 52 | 209 | 0.0 | 2.0 | 0.00 | 0.01 | 0.00 | 63 | 1011.1 |
| 20260506094601 | 52 | 209 | 1.0 | 2.0 | 0.00 | 0.01 | 0.00 | 63 | 1011.0 |
| 20260506094100 | 52 | 209 | 1.0 | 3.0 | 0.00 | 0.01 | 0.00 | 63 | 1010.9 |
| 20260506093604 | 52 | 210 | 1.0 | 3.0 | 0.00 | 0.01 | 0.00 | 62 | 1010.9 |
| 20260506093101 | 52 | 209 | 2.0 | 4.0 | 0.00 | 0.01 | 0.00 | 62 | 1010.9 |
| 20260506092558 | 53 | 209 | 1.0 | 3.0 | 0.00 | 0.01 | 0.00 | 62 | 1010.8 |
| 20260506092102 | 53 | 201 | 1.0 | 3.0 | 0.00 | 0.01 | 0.00 | 61 | 1010.8 |
| 20260506091556 | 53 | 136 | 0.0 | 3.0 | 0.00 | 0.01 | 0.00 | 60 | 1010.8 |
| 20260506091056 | 53 | 138 | 1.0 | 3.0 | 0.00 | 0.01 | 0.00 | 60 | 1010.7 |
| 20260506090557 | 53 | 194 | 1.0 | 3.0 | 0.00 | 0.01 | 0.00 | 60 | 1010.7 |
| 20260506090054 | 53 | 116 | 0.0 | 7.0 | 0.00 | 0.01 | 0.00 | 59 | 1010.6 |
| 20260506085553 | 53 | 131 | 2.0 | 7.0 | 0.00 | 0.01 | 0.00 | 58 | 1010.6 |
| 20260506085052 | 54 | 38 | 1.0 | 4.0 | 0.00 | 0.01 | 0.00 | 56 | 1010.6 |
| 20260506084551 | 56 | 60 | 0.0 | 5.0 | 0.00 | 0.01 | 0.00 | 53 | 1010.6 |
| 20260506084053 | 58 | 44 | 2.0 | 7.0 | 0.00 | 0.01 | 0.00 | 49 | 1010.5 |
| 20260506083549 | 60 | 67 | 0.0 | 11.0 | 0.00 | 0.01 | 0.00 | 47 | 1010.3 |
| 20260506083107 | 61 | 260 | 3.0 | 14.0 | 0.00 | 0.01 | 0.00 | 47 | 1010.2 |
| 20260506082547 | 61 | 265 | 5.0 | 12.0 | 0.00 | 0.01 | 0.00 | 47 | 1010.1 |
| 20260506082050 | 61 | 252 | 5.0 | 14.0 | 0.00 | 0.01 | 0.00 | 47 | 1010.1 |
| 20260506081550 | 61 | 252 | 7.0 | 14.0 | 0.00 | 0.01 | 0.00 | 46 | 1010.0 |
| 20260506081045 | 61 | 261 | 6.0 | 14.0 | 0.00 | 0.01 | 0.00 | 46 | 1010.1 |
| 20260506080545 | 60 | 245 | 8.0 | 16.0 | 0.00 | 0.01 | 0.00 | 47 | 1010.1 |
| 20260506073038 | 56 | 199 | 1.0 | 3.0 | 0.00 | 0.01 | 0.00 | 56 | 1009.9 |
| 20260506072538 | 56 | 199 | 0.0 | 3.0 | 0.00 | 0.01 | 0.00 | 55 | 1010.0 |
| 20260506072037 | 57 | 199 | 0.0 | 3.0 | 0.00 | 0.01 | 0.00 | 55 | 1010.0 |
| 20260506071535 | 57 | 199 | 1.0 | 3.0 | 0.00 | 0.01 | 0.00 | 55 | 1009.9 |
| 20260506071034 | 57 | 199 | 1.0 | 3.0 | 0.00 | 0.01 | 0.00 | 55 | 1009.8 |
| 20260506070536 | 56 | 199 | 1.0 | 3.0 | 0.00 | 0.01 | 0.00 | 55 | 1009.8 |
| 20260506062031 | 58 | 344 | 0.0 | 2.0 | 0.00 | 0.04 | 0.01 | 53 | 1009.6 |
| 20260506061537 | 58 | 344 | 0.0 | 2.0 | 0.00 | 0.04 | 0.01 | 52 | 1009.5 |
| 20260506061032 | 58 | 344 | 0.0 | 2.0 | 0.00 | 0.04 | 0.01 | 51 | 1009.3 |
| 20260506060530 | 59 | 344 | 0.0 | 3.0 | 0.00 | 0.04 | 0.01 | 50 | 1009.4 |
| 20260506051030 | 61 | 139 | 7.0 | 14.0 | 0.00 | 0.04 | 0.01 | 45 | 1008.8 |
| 20260506050528 | 61 | 133 | 8.0 | 15.0 | 0.00 | 0.04 | 0.01 | 45 | 1008.9 |
| 20260506045027 | 62 | 138 | 9.0 | 23.0 | 0.00 | 0.04 | 0.01 | 44 | 1008.8 |
| 20260506044528 | 62 | 144 | 9.0 | 19.0 | 0.00 | 0.04 | 0.01 | 44 | 1008.8 |
| 20260506044029 | 62 | 151 | 12.0 | 23.0 | 0.00 | 0.04 | 0.01 | 44 | 1008.8 |
| 20260506043528 | 62 | 126 | 14.0 | 21.0 | 0.00 | 0.04 | 0.01 | 43 | 1008.8 |
| 20260506043027 | 62 | 130 | 10.0 | 20.0 | 0.00 | 0.04 | 0.01 | 42 | 1008.7 |
| 20260506042527 | 62 | 113 | 4.0 | 9.0 | 0.00 | 0.04 | 0.01 | 43 | 1008.6 |
| 20260506042027 | 63 | 38 | 2.0 | 8.0 | 0.00 | 0.04 | 0.01 | 42 | 1008.7 |
| 20260506041531 | 63 | 80 | 3.0 | 7.0 | 0.00 | 0.04 | 0.01 | 41 | 1008.4 |
| 20260506041027 | 64 | 161 | 1.0 | 7.0 | 0.00 | 0.04 | 0.01 | 40 | 1008.0 |
| 20260506040526 | 64 | 173 | 5.0 | 10.0 | 0.00 | 0.04 | 0.01 | 40 | 1007.9 |
| 20260506040028 | 65 | 168 | 5.0 | 11.0 | 0.00 | 0.04 | 0.01 | 40 | 1007.8 |
| 20260506035527 | 65 | 159 | 4.0 | 11.0 | 0.00 | 0.04 | 0.01 | 39 | 1007.9 |
| 20260506035026 | 65 | 146 | 4.0 | 12.0 | 0.00 | 0.04 | 0.01 | 39 | 1007.8 |
| 20260506034525 | 65 | 146 | 7.0 | 12.0 | 0.00 | 0.04 | 0.01 | 39 | 1007.9 |
| 20260506034026 | 65 | 115 | 4.0 | 11.0 | 0.00 | 0.04 | 0.01 | 39 | 1007.8 |
| 20260506033528 | 65 | 159 | 6.0 | 15.0 | 0.00 | 0.04 | 0.01 | 39 | 1007.7 |
| 20260506033024 | 65 | 138 | 10.0 | 15.0 | 0.00 | 0.04 | 0.01 | 38 | 1007.7 |
| 20260506032524 | 65 | 137 | 7.0 | 14.0 | 0.00 | 0.04 | 0.01 | 38 | 1007.6 |
| 20260506032024 | 65 | 104 | 8.0 | 14.0 | 0.00 | 0.04 | 0.01 | 38 | 1007.5 |
| 20260506031529 | 65 | 134 | 8.0 | 15.0 | 0.00 | 0.04 | 0.01 | 38 | 1007.4 |
| 20260506031028 | 65 | 103 | 8.0 | 18.0 | 0.00 | 0.04 | 0.01 | 38 | 1007.3 |
| 20260506030525 | 65 | 111 | 9.0 | 18.0 | 0.00 | 0.04 | 0.01 | 37 | 1007.3 |
| 20260506030024 | 66 | 111 | 10.0 | 16.0 | 0.00 | 0.04 | 0.01 | 37 | 1007.3 |
| 20260506025527 | 66 | 119 | 9.0 | 16.0 | 0.00 | 0.05 | 0.01 | 37 | 1007.2 |
| 20260506025023 | 66 | 146 | 8.0 | 16.0 | 0.00 | 0.05 | 0.01 | 37 | 1007.2 |
| 20260506024535 | 66 | 124 | 10.0 | 16.0 | 0.00 | 0.05 | 0.01 | 36 | 1007.1 |
| 20260506024022 | 66 | 134 | 10.0 | 18.0 | 0.00 | 0.05 | 0.01 | 36 | 1007.0 |
| 20260506023524 | 67 | 148 | 10.0 | 18.0 | 0.00 | 0.05 | 0.01 | 35 | 1007.0 |
| 20260506023022 | 67 | 139 | 10.0 | 19.0 | 0.00 | 0.05 | 0.01 | 34 | 1007.0 |
| 20260506022525 | 67 | 130 | 11.0 | 19.0 | 0.00 | 0.05 | 0.01 | 34 | 1006.9 |
| 20260506022021 | 68 | 127 | 8.0 | 16.0 | 0.00 | 0.05 | 0.01 | 34 | 1007.1 |
| 20260506021522 | 69 | 85 | 3.0 | 14.0 | 0.00 | 0.05 | 0.01 | 33 | 1007.3 |
| 20260506021020 | 69 | 138 | 5.0 | 14.0 | 0.00 | 0.05 | 0.01 | 32 | 1007.3 |
| 20260506020521 | 69 | 98 | 6.0 | 12.0 | 0.00 | 0.05 | 0.01 | 32 | 1007.0 |
| 20260506020120 | 70 | 159 | 7.0 | 12.0 | 0.00 | 0.05 | 0.01 | 32 | 1006.9 |
| 20260506015520 | 71 | 88 | 6.0 | 10.0 | 0.00 | 0.05 | 0.01 | 31 | 1006.8 |
| 20260506015021 | 70 | 82 | 5.0 | 14.0 | 0.00 | 0.05 | 0.01 | 31 | 1006.9 |
| 20260506014522 | 70 | 103 | 8.0 | 14.0 | 0.00 | 0.05 | 0.01 | 31 | 1006.8 |
| 20260506014018 | 71 | 133 | 6.0 | 14.0 | 0.00 | 0.05 | 0.01 | 30 | 1006.8 |
| 20260506013519 | 71 | 107 | 6.0 | 13.0 | 0.00 | 0.05 | 0.01 | 30 | 1006.9 |
| 20260506013019 | 71 | 136 | 7.0 | 15.0 | 0.00 | 0.05 | 0.01 | 30 | 1006.9 |
| 20260506012518 | 71 | 112 | 7.0 | 14.0 | 0.00 | 0.05 | 0.01 | 29 | 1006.8 |
| 20260506012021 | 72 | 163 | 7.0 | 14.0 | 0.00 | 0.05 | 0.01 | 29 | 1006.8 |
| 20260506011539 | 73 | 92 | 6.0 | 12.0 | 0.00 | 0.05 | 0.01 | 27 | 1006.8 |
| 20260506011017 | 73 | 101 | 1.0 | 9.0 | 0.00 | 0.05 | 0.01 | 26 | 1006.9 |
| 20260506010517 | 73 | 205 | 3.0 | 9.0 | 0.00 | 0.05 | 0.01 | 26 | 1006.8 |
| 20260506010018 | 75 | 119 | 4.0 | 8.0 | 0.00 | 0.05 | 0.01 | 24 | 1006.7 |
| 20260506005517 | 77 | 97 | 3.0 | 6.0 | 0.00 | 0.12 | 0.01 | 23 | 1006.9 |
| 20260506005016 | 76 | 57 | 1.0 | 4.0 | 0.00 | 0.12 | 0.01 | 24 | 1007.0 |
| 20260506004517 | 76 | 28 | 2.0 | 6.0 | 0.00 | 0.12 | 0.01 | 24 | 1007.1 |
| 20260506004014 | 76 | 191 | 2.0 | 6.0 | 0.00 | 0.12 | 0.01 | 24 | 1007.2 |
| 20260506003515 | 76 | 360 | 2.0 | 6.0 | 0.00 | 0.12 | 0.01 | 24 | 1007.2 |
| 20260506003017 | 76 | 40 | 1.0 | 6.0 | 0.00 | 0.12 | 0.01 | 24 | 1007.2 |
| 20260506002518 | 75 | 83 | 1.0 | 8.0 | 0.00 | 0.12 | 0.01 | 25 | 1007.3 |
| 20260506002016 | 75 | 55 | 4.0 | 8.0 | 0.00 | 0.12 | 0.01 | 25 | 1007.3 |
| 20260506001514 | 76 | 74 | 3.0 | 7.0 | 0.00 | 0.12 | 0.01 | 24 | 1007.4 |
| 20260506001014 | 75 | 47 | 1.0 | 6.0 | 0.00 | 0.12 | 0.01 | 25 | 1007.5 |
| 20260506000519 | 75 | 106 | 2.0 | 6.0 | 0.00 | 0.12 | 0.01 | 25 | 1007.4 |
| 20260506000018 | 75 | 128 | 2.0 | 5.0 | 0.00 | 0.12 | 0.01 | 25 | 1007.5 |
| 20260505235513 | 75 | 40 | 1.0 | 6.0 | 0.00 | 0.14 | 0.01 | 26 | 1007.5 |
| 20260505235013 | 74 | 86 | 3.0 | 6.0 | 0.00 | 0.14 | 0.01 | 26 | 1007.6 |
| 20260505234531 | 74 | 41 | 3.0 | 7.0 | 0.00 | 0.14 | 0.01 | 26 | 1007.7 |
| 20260505234011 | 73 | 79 | 2.0 | 9.0 | 0.00 | 0.14 | 0.01 | 28 | 1007.7 |
| 20260505233511 | 72 | 69 | 2.0 | 10.0 | 0.00 | 0.14 | 0.01 | 28 | 1007.8 |
| 20260505233012 | 71 | 196 | 3.0 | 10.0 | 0.00 | 0.14 | 0.01 | 28 | 1007.8 |
| 20260505232513 | 73 | 200 | 3.0 | 6.0 | 0.00 | 0.14 | 0.01 | 27 | 1008.0 |
| 20260505232010 | 75 | 96 | 2.0 | 6.0 | 0.00 | 0.14 | 0.01 | 26 | 1008.0 |
| 20260505231511 | 73 | 351 | 1.0 | 8.0 | 0.00 | 0.14 | 0.01 | 28 | 1008.1 |
| 20260505231010 | 73 | 115 | 2.0 | 8.0 | 0.00 | 0.14 | 0.01 | 27 | 1008.1 |
| 20260505230510 | 72 | 94 | 3.0 | 7.0 | 0.00 | 0.14 | 0.01 | 27 | 1008.2 |
| 20260505230011 | 73 | 210 | 3.0 | 6.0 | 0.00 | 0.14 | 0.01 | 27 | 1008.2 |
| 20260505225513 | 74 | 163 | 0.0 | 6.0 | 0.00 | 0.14 | 0.01 | 26 | 1008.3 |
| 20260505225010 | 75 | 5 | 4.0 | 8.0 | 0.00 | 0.14 | 0.01 | 26 | 1008.4 |
| 20260505224509 | 76 | 92 | 2.0 | 7.0 | 0.00 | 0.14 | 0.01 | 26 | 1008.3 |
| 20260505224008 | 75 | 90 | 1.0 | 5.0 | 0.00 | 0.14 | 0.01 | 27 | 1008.3 |
| 20260505223509 | 73 | 37 | 1.0 | 5.0 | 0.00 | 0.14 | 0.01 | 27 | 1008.3 |
| 20260505223013 | 72 | 28 | 1.0 | 7.0 | 0.00 | 0.14 | 0.01 | 28 | 1008.6 |
| 20260505222512 | 74 | 118 | 5.0 | 8.0 | 0.00 | 0.14 | 0.01 | 26 | 1008.6 |
| 20260505222007 | 75 | 59 | 1.0 | 8.0 | 0.00 | 0.14 | 0.01 | 27 | 1008.8 |
| 20260505221508 | 76 | 76 | 2.0 | 5.0 | 0.00 | 0.14 | 0.01 | 25 | 1008.8 |
| 20260505221007 | 76 | 5 | 1.0 | 8.0 | 0.00 | 0.14 | 0.01 | 26 | 1008.9 |
| 20260505220505 | 76 | 9 | 3.0 | 8.0 | 0.00 | 0.14 | 0.01 | 27 | 1009.0 |
| 20260505220004 | 75 | 350 | 2.0 | 9.0 | 0.00 | 0.14 | 0.01 | 28 | 1009.1 |
| 20260505215503 | 74 | 38 | 2.0 | 9.0 | 0.00 | 0.14 | 0.01 | 28 | 1009.2 |
| 20260505215002 | 72 | 360 | 2.0 | 4.0 | 0.00 | 0.14 | 0.01 | 31 | 1009.2 |
| 20260505214602 | 72 | 132 | 1.0 | 8.0 | 0.00 | 0.14 | 0.01 | 31 | 1009.3 |
| 20260505214002 | 72 | 128 | 3.0 | 8.0 | 0.00 | 0.14 | 0.01 | 30 | 1009.4 |
| 20260505213503 | 69 | 71 | 1.0 | 9.0 | 0.00 | 0.14 | 0.01 | 34 | 1009.4 |
| 20260505213001 | 67 | 165 | 4.0 | 9.0 | 0.00 | 0.14 | 0.01 | 37 | 1009.4 |
| 20260505212603 | 68 | 162 | 6.0 | 9.0 | 0.00 | 0.14 | 0.01 | 34 | 1009.4 |
| 20260505212003 | 67 | 202 | 4.0 | 9.0 | 0.00 | 0.14 | 0.01 | 35 | 1009.4 |
| 20260505211601 | 68 | 193 | 1.0 | 7.0 | 0.00 | 0.14 | 0.01 | 35 | 1009.5 |
| 20260505211100 | 66 | 150 | 2.0 | 9.0 | 0.00 | 0.14 | 0.01 | 37 | 1009.5 |
| 20260505210559 | 66 | 168 | 5.0 | 11.0 | 0.00 | 0.14 | 0.01 | 36 | 1009.6 |
| 20260505210100 | 68 | 157 | 6.0 | 11.0 | 0.00 | 0.14 | 0.01 | 34 | 1009.6 |
| 20260505205600 | 69 | 5 | 1.0 | 10.0 | 0.00 | 0.14 | 0.01 | 34 | 1009.7 |
| 20260505205100 | 72 | 167 | 2.0 | 8.0 | 0.00 | 0.14 | 0.01 | 31 | 1009.8 |
| 20260505204601 | 71 | 115 | 2.0 | 9.0 | 0.00 | 0.14 | 0.01 | 32 | 1009.8 |
| 20260505204056 | 70 | 49 | 4.0 | 9.0 | 0.00 | 0.14 | 0.01 | 34 | 1009.8 |
| 20260505203555 | 69 | 27 | 3.0 | 7.0 | 0.00 | 0.14 | 0.01 | 35 | 1009.8 |
| 20260505203101 | 68 | 51 | 3.0 | 10.0 | 0.00 | 0.14 | 0.01 | 37 | 1009.9 |
| 20260505202554 | 68 | 80 | 4.0 | 10.0 | 0.00 | 0.14 | 0.01 | 37 | 1010.0 |
| 20260505202054 | 66 | 81 | 2.0 | 4.0 | 0.00 | 0.14 | 0.01 | 40 | 1010.0 |
| 20260505201554 | 65 | 36 | 2.0 | 7.0 | 0.00 | 0.14 | 0.01 | 41 | 1010.0 |
| 20260505201054 | 66 | 182 | 2.0 | 7.0 | 0.00 | 0.14 | 0.01 | 40 | 1010.0 |
| 20260505200554 | 68 | 187 | 3.0 | 6.0 | 0.00 | 0.14 | 0.01 | 37 | 1010.0 |
| 20260505200053 | 69 | 5 | 4.0 | 6.0 | 0.00 | 0.14 | 0.01 | 37 | 1010.1 |
| 20260505195551 | 67 | 86 | 2.0 | 10.0 | 0.00 | 0.14 | 0.01 | 40 | 1010.1 |
| 20260505195050 | 66 | 60 | 3.0 | 10.0 | 0.00 | 0.14 | 0.01 | 42 | 1010.2 |
| 20260505194605 | 65 | 82 | 4.0 | 8.0 | 0.00 | 0.14 | 0.01 | 43 | 1010.3 |
| 20260505194049 | 65 | 101 | 3.0 | 8.0 | 0.00 | 0.14 | 0.01 | 44 | 1010.3 |
| 20260505193548 | 65 | 88 | 4.0 | 7.0 | 0.00 | 0.14 | 0.01 | 44 | 1010.3 |
| 20260505193048 | 63 | 355 | 1.0 | 9.0 | 0.00 | 0.14 | 0.01 | 47 | 1010.4 |
| 20260505192547 | 63 | 65 | 1.0 | 9.0 | 0.00 | 0.14 | 0.01 | 48 | 1010.3 |
| 20260505192047 | 63 | 98 | 3.0 | 7.0 | 0.00 | 0.14 | 0.01 | 48 | 1010.5 |
| 20260505191556 | 62 | 171 | 3.0 | 5.0 | 0.00 | 0.14 | 0.01 | 48 | 1010.4 |
| 20260505191048 | 61 | 82 | 0.0 | 6.0 | 0.00 | 0.14 | 0.01 | 49 | 1010.3 |
| 20260505190548 | 61 | 190 | 1.0 | 6.0 | 0.00 | 0.14 | 0.01 | 48 | 1010.3 |
| 20260505190046 | 61 | 144 | 2.0 | 7.0 | 0.00 | 0.14 | 0.01 | 47 | 1010.4 |
| 20260505185545 | 62 | 247 | 2.0 | 5.0 | 0.00 | 0.14 | 0.01 | 48 | 1010.3 |
| 20260505185045 | 62 | 236 | 2.0 | 5.0 | 0.00 | 0.14 | 0.01 | 47 | 1010.3 |
| 20260505184545 | 62 | 355 | 2.0 | 5.0 | 0.00 | 0.14 | 0.01 | 48 | 1010.3 |
| 20260505184045 | 62 | 324 | 1.0 | 4.0 | 0.00 | 0.14 | 0.01 | 49 | 1010.3 |
| 20260505183546 | 63 | 258 | 1.0 | 5.0 | 0.00 | 0.14 | 0.01 | 46 | 1010.3 |
| 20260505183043 | 65 | 150 | 1.0 | 9.0 | 0.00 | 0.14 | 0.01 | 44 | 1010.3 |
| 20260505182543 | 63 | 350 | 2.0 | 9.0 | 0.00 | 0.14 | 0.01 | 49 | 1010.3 |
| 20260505182044 | 61 | 338 | 0.0 | 3.0 | 0.00 | 0.14 | 0.01 | 54 | 1010.3 |
| 20260505181540 | 58 | 15 | 0.0 | 5.0 | 0.00 | 0.14 | 0.01 | 56 | 1010.3 |
| 20260505181040 | 58 | 194 | 1.0 | 8.0 | 0.00 | 0.14 | 0.01 | 56 | 1010.4 |
| 20260505180539 | 58 | 333 | 3.0 | 8.0 | 0.00 | 0.14 | 0.01 | 57 | 1010.3 |
| 20260505180046 | 58 | 219 | 3.0 | 7.0 | 0.00 | 0.14 | 0.01 | 58 | 1010.2 |
| 20260505175536 | 57 | 229 | 2.0 | 6.0 | 0.00 | 0.14 | 0.01 | 59 | 1010.2 |
| 20260505175035 | 57 | 248 | 3.0 | 7.0 | 0.00 | 0.14 | 0.01 | 60 | 1010.2 |
| 20260505174534 | 56 | 205 | 2.0 | 5.0 | 0.00 | 0.14 | 0.01 | 61 | 1010.1 |
| 20260505174034 | 56 | 236 | 2.0 | 6.0 | 0.00 | 0.14 | 0.01 | 62 | 1010.1 |
| 20260505173534 | 56 | 266 | 3.0 | 6.0 | 0.00 | 0.14 | 0.01 | 62 | 1010.2 |
| 20260505173032 | 55 | 229 | 3.0 | 6.0 | 0.00 | 0.14 | 0.01 | 62 | 1010.2 |
| 20260505172533 | 56 | 252 | 2.0 | 7.0 | 0.00 | 0.14 | 0.01 | 62 | 1010.1 |
| 20260505172032 | 56 | 251 | 2.0 | 8.0 | 0.00 | 0.14 | 0.01 | 62 | 1010.0 |
| 20260505171531 | 55 | 200 | 2.0 | 8.0 | 0.00 | 0.14 | 0.01 | 63 | 1010.0 |
| 20260505171031 | 55 | 211 | 5.0 | 8.0 | 0.00 | 0.14 | 0.01 | 62 | 1010.0 |
| 20260505170530 | 55 | 234 | 2.0 | 9.0 | 0.00 | 0.14 | 0.01 | 63 | 1010.0 |
| 20260505170029 | 55 | 227 | 4.0 | 9.0 | 0.00 | 0.14 | 0.01 | 63 | 1009.9 |
| 20260505165528 | 54 | 198 | 4.0 | 11.0 | 0.00 | 0.14 | 0.01 | 64 | 1009.9 |
| 20260505165028 | 54 | 241 | 6.0 | 11.0 | 0.00 | 0.14 | 0.01 | 64 | 1009.9 |
| 20260505164528 | 54 | 282 | 6.0 | 12.0 | 0.00 | 0.14 | 0.01 | 64 | 1009.9 |
| 20260505164027 | 54 | 244 | 7.0 | 12.0 | 0.00 | 0.14 | 0.01 | 64 | 1009.8 |
| 20260505163525 | 54 | 232 | 6.0 | 11.0 | 0.00 | 0.14 | 0.01 | 64 | 1009.8 |
| 20260505163025 | 54 | 270 | 5.0 | 9.0 | 0.00 | 0.14 | 0.01 | 64 | 1009.8 |
| 20260505162525 | 54 | 207 | 4.0 | 10.0 | 0.00 | 0.14 | 0.01 | 65 | 1009.6 |
| 20260505162024 | 54 | 248 | 3.0 | 10.0 | 0.00 | 0.14 | 0.01 | 65 | 1009.6 |
| 20260505161526 | 54 | 237 | 5.0 | 11.0 | 0.00 | 0.14 | 0.01 | 65 | 1009.6 |
| 20260505161023 | 54 | 245 | 4.0 | 10.0 | 0.00 | 0.14 | 0.01 | 66 | 1009.6 |
| 20260505160524 | 53 | 244 | 5.0 | 10.0 | 0.00 | 0.14 | 0.01 | 65 | 1009.6 |
| 20260505153015 | 51 | 257 | 4.0 | 7.0 | 0.00 | 0.14 | 0.01 | 71 | 1009.2 |
| 20260505152513 | 51 | 267 | 3.0 | 7.0 | 0.00 | 0.14 | 0.01 | 72 | 1009.1 |
| 20260505152015 | 51 | 254 | 3.0 | 5.0 | 0.00 | 0.14 | 0.01 | 71 | 1009.2 |
| 20260505151514 | 50 | 233 | 3.0 | 8.0 | 0.00 | 0.14 | 0.01 | 71 | 1009.2 |
| 20260505151011 | 50 | 222 | 3.0 | 8.0 | 0.00 | 0.14 | 0.01 | 71 | 1009.2 |
| 20260505150512 | 50 | 251 | 2.0 | 5.0 | 0.00 | 0.14 | 0.01 | 72 | 1009.1 |
| 20260505140504 | 49 | 211 | 3.0 | 7.0 | 0.00 | 0.14 | 0.01 | 73 | 1008.4 |